Flag for Germany Weather past 2 weeks in Gaggenau, Baden-Württemberg, Germany

Now
77 °F

Sunny.


Feels Like: 78 °F
Forecast: 57 / 82 °F
Wind: 6 mph from North

Location: Karlsruhe - Baden Wurttemberg

Current Time: Jul 31, 2014 at 7:35:25 PM

Latest Report: Jul 31, 2014 at 7:20 PM


Visibility: 10 mi

Pressure: 29.92 "Hg

Humidity: 44%

Dew point: 54 °F

Location of GaggenauLocation

Historic Weather in Gaggenau — Graph

°F

Gaggenau temperature yesterday

Maximum temperature yesterday: 72 °F (at 5:20 PM)
Minimum temperature yesterday: 63 °F (at 4:50 AM)
Average temperature yesterday: 66 °F

Past Weeks' High & Low Weather Summary

 TemperatureHumidityPressure
High93 °F (Jul 19, 5:20 PM)94% (Jul 17, 5:50 AM)30.18 "Hg (Jul 17, 5:50 AM)
Low57 °F (Jul 17, 5:50 AM)24% (Jul 18, 4:20 PM)29.77 "Hg (Jul 28, 5:20 PM)
Average71 °F68%29.93 "Hg
* Reported Jul 16 6:20 PM — Jul 31 6:20 PM, Gaggenau, Weather by CustomWeather, © 2014

Note: Actual official high and low records may vary slightly from our data, if they occured in-between our weather recording intervals... More about our weather records

Advertising

Gaggenau weather history for previous 24 hours

 ConditionsComfort  
Time TempWeatherWind HumidityBarometerVisibility
6:20 PM
Jul 31
77 °FPassing clouds.6 mph44%29.92 "HgN/A
5:50 PM77 °FPassing clouds.6 mph44%29.95 "HgN/A
5:20 PM77 °FSunny.3 mph44%29.95 "Hg10 mi
4:50 PM77 °FPassing clouds.5 mph47%29.95 "HgN/A
4:20 PM77 °FPassing clouds.5 mph44%29.95 "HgN/A
3:50 PM77 °FPassing clouds.5 mph42%29.95 "HgN/A
3:20 PM77 °FPassing clouds.5 mph42%29.98 "HgN/A
2:50 PM77 °FPassing clouds.5 mph44%29.98 "HgN/A
2:20 PM75 °FScattered clouds.6 mph50%29.98 "HgN/A
1:50 PM75 °FScattered clouds.8 mph47%29.98 "HgN/A
1:20 PM75 °FScattered clouds.7 mph50%29.98 "HgN/A
12:50 PM73 °FScattered clouds.3 mph57%30.01 "Hg6 mi
12:20 PM72 °FScattered clouds.6 mph69%30.01 "HgN/A
11:50 AM72 °FScattered clouds.6 mph69%30.01 "HgN/A
11:20 AM72 °FScattered clouds.6 mph69%30.01 "HgN/A
10:50 AM70 °FPassing clouds.6 mph73%30.01 "HgN/A
10:20 AM68 °FPassing clouds.5 mph78%30.01 "HgN/A
9:50 AM66 °FFog.2 mph88%30.01 "Hg2 mi
9:20 AM64 °FScattered clouds.No wind88%30.01 "Hg2 mi
8:50 AM63 °FScattered clouds.2 mph94%30.01 "Hg2 mi
8:20 AM63 °FFog.2 mph88%30.01 "Hg1 mi
7:50 AM61 °FFog.No wind94%30.01 "Hg1 mi
7:20 AM59 °FFog.No wind94%30.01 "Hg1 mi
6:59 AM59 °FFog.No wind88%30.01 "Hg1 mi
6:50 AM57 °FLight fog.No wind94%30.01 "Hg5 mi
6:20 AM57 °FFog.1 mph94%30.01 "Hg5 mi
5:50 AM57 °FFog.3 mph94%29.98 "Hg5 mi
5:20 AM59 °FFog.3 mph94%29.98 "HgN/A
4:50 AM61 °FFog.3 mph88%29.98 "HgN/A
12:20 AM63 °FClear.2 mph88%29.95 "Hg10 mi
11:50 PM
Jul 30
64 °FClear.1 mph83%29.95 "Hg10 mi
11:20 PM66 °FPassing clouds.3 mph78%29.95 "HgN/A
10:50 PM66 °FPartly cloudy.5 mph78%29.95 "HgN/A
10:20 PM68 °FPartly cloudy.6 mph73%29.95 "HgN/A
9:50 PM68 °FPartly sunny.2 mph83%29.95 "HgN/A
9:20 PM68 °FScattered showers. Partly sunny.No wind83%29.95 "Hg6 mi
8:50 PM68 °FScattered showers. Partly sunny.2 mph83%29.92 "HgN/A
8:20 PM70 °FScattered showers. Broken clouds.2 mph78%29.92 "HgN/A
7:50 PM70 °FScattered showers. Partly sunny.2 mph78%29.89 "HgN/A
7:20 PM70 °FScattered showers. Partly sunny.2 mph73%29.89 "HgN/A
Weather by CustomWeather, © 2014

See weather overviewHow to use our weather pages